Tracking 19854 objects as of 23-Sep-2019
HD Live streaming from Space Station
objects crossing your sky now

FENGYUN 1C DEB

Track FENGYUN 1C DEB now!
10-day predictions


NORAD ID: 32166
Int'l Code: 1999-025CTL
Perigee: 499.3 km
Apogee: 716.3 km
Inclination: 98.2 °
Period: 96.7 minutes
Semi major axis: 6978 km
RCS: 0.0014 m2 (small)
Launch date: May 10, 1999
Source: People's Republic of China (PRC)
Launch site: Taiyaun Space Center, China (TSC)

Note: This is SATELLITE DEBRIS
aabbcc
Your satellite tracking list
Your tracking list is empty




NASA's NSSDC Master Catalog

Two Line Element Set (TLE):
1 32166U 99025CTL 19265.17240378  .00001281  00000-0  11437-3 0  9999
2 32166  98.2413  42.9744 0155437  96.0545 265.8407 14.89119540656282
Source of the keplerian elements: AFSPC